Regional Weather Roundup
Issued by NWS Grand Forks, ND

Home | Current Version | Previous Version | Graphics & Text | Print | Product List | Glossary On
Versions: 1 2 3 4 5 6 7 8 9 10 11 12 13 14 15 16 17 18 19 20 21 22 23 24 25 26 27 28 29 30 31 32 33 34 35 36 37 38 39 40 41 42 43 44 45 46 47 48 49 50
829
ASUS43 KFGF 251431
RWRFGF
PRAIRIE TO PINES  WEATHER ROUNDUP
NATIONAL WEATHER SERVICE EASTERN NORTH DAKOTA/GRAND FORKS ND
900 AM CDT SAT MAR 25 2017

 **SATELLITE DATA USED TO AUGMENT SKY COVER AT AUTOMATED STATIONS**
 *****  WEATHER ACROSS EASTERN NORTH DAKOTA  *****

CITY           SKY/WX    TMP DP  RH WIND       PRES   REMARKS
GRAND FORKS    PTSUNNY   34  32  92 SE14      30.16S WCI  25
GRAND FRKS AFB FAIR      32  32  99 S13       30.15S WCI  23
DEVILS LAKE    CLOUDY    30  28  93 S16       30.07F WCI  19
FARGO          FAIR      35  31  85 SE12      30.18R
WAHPETON ARPT  CLOUDY    32  30  93 SE13G18   30.19S WCI  22
$$

 ***** WEATHER ACROSS CENTRAL AND WESTERN NORTH DAKOTA  *****

CITY           SKY/WX    TMP DP  RH WIND       PRES   REMARKS
BISMARCK       CLOUDY    31  31 100 SE17      30.04S FOG     WCI  19
MINOT          FAIR      33  30  88 SE10      29.94F WCI  25
JAMESTOWN      CLOUDY    31  30  96 S15       30.10S FOG     WCI  20
MINOT AFB      FAIR      31  30  94 SE13      29.93F WCI  22
GARRISON         N/A     31  30  96 SE14      29.96S WCI  21
WILLISTON      FAIR      42  33  70 S8        29.85R
DICKINSON      FAIR      35  30  82 S12       29.89R
HETTINGER      FAIR      34  30  85 SE10      29.94S
$$

 *****  OTHER AIRPORT OBSERVATIONS IN OUR AREA  *****

CITY           SKY/WX    TMP DP  RH WIND       PRES   REMARKS
WALHALLA       NOT AVBL
GRAFTON AIRPOR FAIR      32  32 100 SE14      30.16F WCI  22
VALLEY CITY AR FAIR      30  30 100 S12       30.13F WCI  21
CANDO          NOT AVBL
CAVALIER APRT    N/A     32  30  93 S14       30.12F WCI  22
GWINNER        CLOUDY    32  32 100 MISG      30.15S
SHEYENNE NWR     N/A     31  31 100 SE7       29.95S WCI  24
ROLLA          CLOUDY    27  27 100 S15       30.01F WCI  15
 ***** THE ABOVE OBSERVATIONS ARE NON NWS ARE NOT QUALITY
       CONTROLLED AND MAY MIS-REPORT RAIN FOR SNOW...
$$

  *****  WEATHER ACROSS NORTHERN MINNESOTA  *****

CITY           SKY/WX    TMP DP  RH WIND       PRES   REMARKS
FLAG ISLAND    FAIR      30  27  86 SE8       30.20F WCI  23
WARROAD        FAIR      34  30  86 SE8       30.20F
ROSEAU         FAIR      36  28  75 SE9       30.19F
HALLOCK        FAIR      34  30  86 SE15      30.15F WCI  24
THF RVR FALLS  CLOUDY   N/A N/A N/A SE8       30.20S
BAUDETTE       CLOUDY    32  29  88 SE10      30.22R WCI  24
WASKISH        CLOUDY    36  30  80 SE9G18    30.23S
CROOKSTON      FAIR      34  32  93 SE10      30.19S
STEPHEN NDAWN    N/A     34  30  86 SE14        N/A  WCI  24
GREENBUSH NDAW   N/A     34  30  86 SE12        N/A
$$
  *****  WEATHER ACROSS CENTRAL AND WEST MINNESOTA  *****

CITY           SKY/WX    TMP DP  RH WIND       PRES   REMARKS
FOSSTON        CLOUDY    34  30  86 SE13      30.19S WCI  25
BEMIDJI        CLOUDY    33  29  83 SE17      30.21S WCI  22
PARK RAPIDS    CLOUDY    34  25  69 SE13G23   30.20S WCI  25
ELBOW LAKE     CLOUDY    32  30  91 SE13G20   30.19S WCI  22
WADENA         CLOUDY    34  27  75 E13G18    30.19F WCI  25
DETROIT LAKES  CLOUDY    34  30  86 SE15G22   30.18F WCI  24
MOORHEAD       FAIR      34  30  86 SE7       30.19S
FERGUS FALLS   CLOUDY    32  28  86 SE13      30.23S WCI  22
MORRIS MN      CLOUDY    34  30  86 E9        30.18S
STAPLES        CLOUDY    34  27  75 E12       30.21S
$$
  *****  WEATHER ELSEWHERE ACROSS MINNESOTA  *****

CITY           SKY/WX    TMP DP  RH WIND       PRES   REMARKS
DULUTH         CLOUDY    32  29  88 E20G25    30.25S WCI  20
INTRNTL FALLS  CLOUDY    34  29  82 SE10      30.26S
ELY            CLOUDY    30  25  80 SE10      30.29S WCI  21
CLOQUET        CLOUDY    32  28  86 E8G17     30.25S WCI  25
WHEATON        CLOUDY    34  30  86 E13       30.21R WCI  25
BRAINERD       CLOUDY    34  28  79 E9        30.23R
HIBBING        CLOUDY    30  26  85 E9        30.27R WCI  22
ALEXANDRIA     CLOUDY    33  29  85 E10       30.19S WCI  25
SAINT CLOUD    CLOUDY    35  30  82 E9        30.20R
MINNEAPOLIS    CLOUDY    37  30  75 E13G23    30.18R
$$

  *****  WEATHER ACROSS SOUTH DAKOTA  *****

CITY           SKY/WX    TMP DP  RH WIND       PRES   REMARKS
SIOUX FALLS    CLOUDY    36  35  96 NE15      30.12S FOG
BROOKINGS      CLOUDY    32  31  96 E10       30.13R FOG     WCI  24
WATERTOWN      CLOUDY    31  29  92 SE9       30.12S FOG     WCI  23
HURON          CLOUDY    33  31  92 SE9       30.14R
SISSETON         N/A     34  32  92 S12       30.16S
ABERDEEN       CLOUDY    32  28  85 SE12      30.14S WCI  23
MITCHELL       CLOUDY    34  32  92 E7        30.15S FOG
PIERRE         FOG       31  31 100 SE16      30.06S VSB 1/2 WCI  20
MOBRIDGE       CLOUDY    33  30  88 SE15G25   30.03S FOG     WCI  23
RAPID CITY     FAIR      41  31  67 SE12      29.94F
$$

  *****  SOME WEATHER IN NEARBY STATES *****

CITY           SKY/WX    TMP DP  RH WIND       PRES   REMARKS
GLASGOW MT     FAIR      43  32  65 W9        29.85S
GREAT FALLS MT FAIR      40  24  53 SW16      29.94R
CHEYENNE WY    FAIR      38  29  70 SW8       30.03S
SCOTTSBLUFF NE FAIR      34  29  82 E12       30.03R
OMAHA NE       LGT RAIN  41  36  82 N17       29.98S
DES MOINES IA  RAIN      41  38  89 N16       29.95R FOG
DAVENPORT IA   LGT RAIN  41  39  93 NE22      29.93S FOG
CHICAGO IL     LGT RAIN  42  39  89 NE13      30.06R FOG
EAU CLAIRE WI  CLOUDY    36  30  79 E13G24    30.19R
LA CROSSE WI   CLOUDY    39  34  82 NE10      30.13S
$$

  *****  SOME NATIONAL WEATHER *****

CITY           SKY/WX    TMP DP  RH WIND       PRES   REMARKS
LA GUARDIA NY  PTSUNNY   56  38  50 NE7       30.15F
RALEIGH NC     PTSUNNY   64  52  64 SW14      30.34F
ATLANTA GA     PTSUNNY   62  54  74 S12G17    30.28F
NEW ORLEANS LA PTSUNNY   74  68  81 S18G26    30.07S
OKLAHOMA CITY  CLOUDY    48  43  82 NW15G22   29.98R
ALBUQUERQUE NM FAIR      45  22  40 N3        30.16S
SALT LAKE CITY CLOUDY    47  42  83 NW12      30.02R
LOS ANGELES CA FAIR      57  52  83 W12       30.12R
BOISE ID       FAIR      37  34  89 SE7       30.09S
SEATTLE WA     MOCLDY    43  40  89 S13       30.07R
$$

*** WEATHER ACROSS MANITOBA...SASKATCHEWAN AND ONTARIO ***
                ***ONTARIO***

CITY           SKY/WX    TMP DP  RH WIND       PRES   REMARKS
GERALDTON      MOSUNNY   12  -2  52 E9        30.45R WCI   0
THUNDER BAY    MOSUNNY   25  16  68 E10       30.42R WCI  15
SIOUX LOOKOUT  PTSUNNY   25   7  46 SE8       30.30S WCI  16
TORONTO        LGT RAIN  36  34  93 NE9G17    30.29R
BIG TROUT LK   SUNNY      7  -8  51 SE3       30.40F
PICKLE LAKE    PTSUNNY   16  -6  38 S13       30.35F WCI   2
DRYDEN         CLOUDY    30  21  69 SE14      30.26F WCI  20
KENORA         PTSUNNY   32  25  74 S9        30.21F WCI  24
$$
                *** MANITOBA***

CITY           SKY/WX    TMP DP  RH WIND       PRES   REMARKS
BRANDON        CLOUDY    30  27  86 SE12G18   29.98F WCI  21
DAUPHIN        MOSUNNY   30  27  86 SE12      29.91F WCI  21
ISLAND LAKE    NOT AVBL
PILOT MOUND      N/A     27  25  93 S16G23      N/A  WCI  14
THE PAS        FRZ RAIN  25  21  86 SE15G22   29.85F WCI  12
THOMPSON       CLOUDY    10  -4  52 E7        30.11F WCI   0
WINNIPEG       CLOUDY    32  28  86 S14       30.12F WCI  22
LYNN LAKE      SUNNY     12   1  62 E8        30.01F WCI   1
CHURCHILL      MOSUNNY   -9 -17  70 S8        30.32F WCI -26
GILLAM         CLOUDY     7  -6  56 SE5       30.26F WCI  -2
$$
                ***SASKATCHEWAN***

CITY           SKY/WX    TMP DP  RH WIND       PRES   REMARKS
ESTEVAN        CLOUDY    36  32  87 SE9       29.81F
KINDERSLEY     PTCLDY    36  32  87 W16G23    29.64R
LLOYDMINSTER   CLOUDY    32  32 100 N7        29.65S FOG
PRINCE ALBERT  CLOUDY    32  30  93 E10       29.62S WCI  24
REGINA         PTSUNNY   37  34  87 SE8       29.73S
YORKTON        CLOUDY    30  28  93 SE21G32   29.77F WCI  17
N. BATTLEFORD  SNOW      32 N/A N/A N8        29.63R VSB 3/8 WCI  25
LA RONGE       LGT SNOW  21  19  93 NE14      29.77F WCI   8
SASKATOON      PTCLDY    37  34  87 S12       29.58F
SWIFT CURRENT  CLEAR     41  30  65 W24G32    29.70R
$$
NOTE: THESE ARE AUTOMATED STATIONS WITH LIMITED QUALITY CONTROL
      "FAIR" INDICATES FEW OR NO CLOUDS BELOW 12,000 FEET WITH NO
      SIGNIFICANT WEATHER AND/OR OBSTRUCTIONS TO VISIBILITY.
      SKY/WX - SKY CONDITION AND SIGNIFICANT WEATHER.
      TMP - AIR TEMPERATURE.    DP   - DEWPOINT TEMPERATURE.
      RH  - RELATIVE HUMIDITY.  PRES - PRESSURE.
      HX  - HEAT INDEX.         WCI  - WIND CHILL INDEX.
$




USA.gov is the U.S. government's official web portal to all federal, state and local government web resources and services.